Probability
35 61 100 100 100 100 100 100 97 94 94 97 100 94 74 77 77 77 81 94 100 97 97 94 90 87 87 84 84 90 90 90 87 84 84 90 87 87 90 87 94 61 94
52 77 100 100 100 100 100 100 97 97 100 100 100 97 77 68 61 52 55 55 68 77 74 81 81 74 68 74 61 68 74 74 68 55 61 74 77 81 84 77 97 87 97
55 81 100 100 100 100 100 100 100 100 100 100 100 97 77 58 45 26 26 29 32 39 39 45 42 39 29 32 42 42 45 45 45 45 71 48 39 68 55 68 87 90 87
55 65 97 100 100 100 100 100 100 100 100 100 100 94 84 65 35 23 6 3 6 10 10 16 19 16 13 16 23 16 23 23 35 55 77 81 26 61 74 35 58 68 74
48 35 100 100 100 100 100 100 100 100 100 100 100 94 84 77 39 23 23 19 10 3 3 0 3 3 3 6 6 6 10 10 23 26 55 74 58 87 84 52 39 35 48
52 58 100 100 100 100 100 100 100 100 100 97 94 94 87 77 48 48 48 45 26 23 19 10 10 10 10 13 10 6 3 3 6 3 10 45 68 100 94 84 68 68 71
61 84 100 100 100 100 100 100 100 100 97 94 94 94 94 84 74 52 48 45 52 52 35 26 26 26 29 32 32 29 26 23 23 16 26 48 97 100 100 90 90 90 87
74 94 100 100 100 100 100 100 100 100 97 90 90 94 94 94 94 87 84 74 81 77 81 81 81 87 84 87 87 84 81 61 19 10 26 61 100 100 100 100 100 100 100
87 94 94 100 100 100 100 100 100 100 97 94 94 94 100 100 100 94 90 87 97 97 94 94 97 100 100 100 100 100 97 97 84 35 16 61 100 100 100 97 97 100 100
90 100 97 97 100 100 100 100 100 100 100 100 100 100 100 100 100 100 100 100 97 97 97 100 100 100 100 100 100 100 100 100 97 52 35 71 100 100 100 100 100 100 100
84 97 97 97 100 100 100 100 100 100 100 100 100 100 100 100 100 100 100 100 100 100 100 100 100 100 100 100 100 100 100 100 77 68 65 87 100 100 100 100 100 100 100
87 84 97 100 100 100 97 100 100 100 100 100 100 100 100 100 100 100 100 100 100 100 100 100 100 100 100 100 100 100 100 97 84 61 77 100 100 100 100 100 100 100 100
97 94 94 100 100 100 100 100 100 100 100 100 100 100 100 100 100 100 100 100 100 100 100 100 100 100 100 100 100 100 97 100 94 84 84 97 100 100 100 100 100 100 100
94 97 97 100 100 100 100 100 100 100 100 100 100 100 100 100 100 100 100 100 100 100 100 100 100 100 97 100 100 100 100 100 97 87 97 100 100 100 100 100 100 100 100
100 100 100 100 100 100 100 100 100 100 100 100 100 100 100 100 100 100 100 100 97 97 100 100 100 94 94 97 100 100 94 100 94 100 97 97 97 97 100 100 100 100 100
100 100 100 100 100 100 100 100 100 100 100 100 100 100 100 100 100 100 100 100 100 100 94 94 97 97 94 97 97 94 94 97 94 94 94 97 97 97 100 100 100 100 100
100 100 100 100 100 100 100 100 100 97 97 97 100 100 100 100 100 100 100 100 100 94 94 94 94 94 97 94 94 90 90 94 84 87 87 94 94 100 97 97 100 100 100
100 100 97 97 97 97 100 100 100 97 97 97 97 100 100 100 100 100 100 97 97 97 94 94 94 97 94 94 87 90 90 87 87 81 81 87 81 74 87 97 100 100 100
100 100 97 97 97 97 90 94 90 94 94 97 90 94 90 90 90 90 94 97 97 90 90 90 94 94 90 90 87 84 77 84 87 81 81 77 81 81 68 81 94 100 100
97 97 100 100 97 84 84 84 90 90 87 84 87 97 74 74 77 84 87 90 90 87 90 94 94 94 94 90 77 74 74 74 84 81 77 71 74 74 61 65 68 65 87
84 90 90 87 84 90 87 97 90 94 84 74 81 74 42 52 61 61 65 74 71 68 81 74 77 74 81 90 84 87 84 77 77 77 77 68 71 71 61 68 68 55 52
84 77 84 81 77 81 81 100 94 87 81 71 65 71 52 39 42 23 68 68 68 71 71 81 84 77 77 81 84 68 61 58 77 68 74 68 71 74 61 58 61 65 48
68 71 77 84 81 84 90 90 90 97 100 90 87 77 71 42 32 45 48 71 71 71 68 71 71 71 61 71 74 77 58 42 55 61 68 68 68 71 68 65 68 74 61
61 65 74 71 74 81 87 94 90 90 94 90 94 87 74 58 48 48 45 58 71 68 68 61 39 55 45 45 45 65 68 58 35 32 42 55 65 65 71 65 58 65 48
35 45 68 68 71 77 84 90 97 90 90 90 90 94 97 87 84 58 52 48 55 65 71 65 65 58 48 39 35 48 45 58 55 26 13 39 61 61 77 81 77 71 61
29 29 39 52 55 68 74 74 84 84 90 94 94 94 90 90 90 81 52 52 55 61 61 61 61 48 48 52 39 29 35 32 42 42 13 32 35 55 61 71 68 74 68
Height
5918 5918 5917 5917 5917 5917 5916 5916 5915 5914 5913 5912 5911 5910 5909 5907 5906 5905 5904 5903 5902 5900 5899 5898 5897 5896 5895 5894 5893 5892 5892 5891 5891 5890 5890 5890 5890 5890 5890 5890 5890 5890 5890
5919 5918 5918 5918 5918 5917 5917 5916 5916 5915 5914 5913 5912 5911 5910 5908 5907 5906 5905 5904 5903 5901 5900 5899 5898 5897 5896 5895 5894 5894 5893 5892 5892 5891 5891 5891 5891 5891 5891 5891 5891 5891 5891
5919 5918 5918 5918 5918 5917 5917 5916 5916 5915 5914 5913 5912 5911 5910 5909 5908 5907 5906 5904 5903 5902 5901 5900 5899 5898 5897 5896 5895 5895 5894 5893 5893 5892 5892 5892 5892 5892 5892 5892 5892 5892 5892
5918 5918 5918 5918 5918 5917 5916 5916 5915 5915 5914 5913 5912 5911 5910 5909 5908 5907 5905 5904 5903 5902 5901 5900 5899 5898 5898 5897 5896 5895 5895 5894 5893 5893 5893 5893 5892 5892 5892 5892 5892 5893 5893
5918 5918 5917 5917 5917 5916 5916 5915 5915 5914 5913 5912 5911 5910 5909 5908 5907 5906 5905 5904 5903 5902 5901 5900 5899 5898 5898 5897 5896 5896 5895 5894 5894 5893 5893 5893 5893 5892 5892 5892 5893 5893 5893
5917 5917 5917 5916 5916 5915 5915 5914 5914 5913 5912 5911 5910 5909 5908 5907 5906 5905 5904 5903 5902 5901 5900 5899 5899 5898 5897 5897 5896 5895 5895 5894 5894 5893 5893 5893 5893 5892 5892 5892 5893 5893 5893
5916 5916 5916 5915 5915 5914 5914 5913 5912 5911 5911 5910 5909 5908 5907 5906 5905 5904 5903 5902 5901 5900 5899 5898 5898 5897 5897 5896 5895 5895 5894 5894 5893 5893 5893 5893 5893 5892 5892 5892 5892 5893 5893
5915 5915 5915 5914 5914 5913 5912 5911 5910 5910 5909 5908 5907 5906 5905 5904 5903 5902 5901 5900 5899 5898 5897 5897 5896 5896 5895 5895 5894 5893 5893 5892 5892 5892 5893 5892 5892 5892 5892 5892 5892 5892 5892
5914 5913 5913 5912 5912 5911 5910 5909 5908 5908 5907 5906 5904 5903 5902 5901 5900 5899 5898 5897 5896 5896 5895 5894 5894 5893 5893 5892 5892 5891 5891 5890 5890 5891 5891 5891 5891 5891 5891 5891 5891 5891 5892
5912 5912 5911 5910 5910 5909 5908 5907 5906 5905 5904 5903 5901 5900 5899 5898 5897 5896 5895 5894 5893 5892 5892 5891 5891 5890 5890 5889 5889 5889 5888 5888 5888 5888 5888 5889 5889 5889 5889 5889 5890 5890 5890
5910 5909 5908 5908 5907 5906 5905 5903 5902 5901 5900 5899 5898 5897 5895 5894 5893 5892 5891 5890 5889 5888 5887 5887 5886 5886 5886 5885 5885 5885 5885 5884 5884 5885 5885 5886 5885 5886 5886 5886 5887 5887 5888
5907 5906 5905 5905 5904 5903 5901 5900 5898 5897 5896 5895 5893 5892 5891 5889 5888 5887 5886 5885 5884 5883 5882 5882 5881 5881 5881 5881 5881 5880 5880 5880 5880 5881 5882 5882 5882 5882 5882 5883 5883 5884 5885
5904 5903 5902 5901 5900 5899 5897 5896 5894 5893 5891 5890 5888 5887 5885 5884 5883 5882 5881 5880 5878 5877 5876 5876 5875 5875 5875 5875 5875 5875 5875 5874 5875 5875 5877 5877 5877 5877 5878 5878 5879 5879 5880
5900 5899 5898 5897 5896 5894 5893 5891 5890 5888 5887 5885 5883 5882 5880 5879 5877 5876 5875 5873 5873 5872 5871 5870 5870 5869 5868 5868 5868 5869 5869 5869 5869 5870 5871 5871 5871 5871 5872 5873 5873 5874 5875
5896 5895 5894 5893 5891 5890 5888 5886 5885 5883 5881 5879 5878 5876 5875 5873 5871 5870 5869 5867 5866 5865 5864 5864 5863 5863 5862 5862 5861 5861 5861 5862 5863 5863 5863 5865 5865 5864 5865 5866 5867 5868 5869
5891 5890 5889 5888 5886 5885 5883 5881 5880 5878 5876 5874 5872 5871 5869 5867 5866 5864 5863 5861 5860 5859 5858 5857 5857 5856 5855 5855 5855 5855 5854 5855 5855 5856 5856 5857 5858 5858 5858 5859 5860 5861 5862
5885 5884 5883 5882 5881 5879 5878 5876 5874 5872 5870 5868 5867 5865 5863 5861 5860 5858 5857 5856 5854 5853 5852 5852 5851 5850 5850 5850 5849 5849 5849 5848 5848 5849 5848 5849 5850 5850 5851 5851 5852 5853 5854
5879 5878 5877 5875 5874 5873 5872 5870 5868 5866 5864 5862 5860 5859 5858 5856 5854 5853 5851 5850 5849 5848 5847 5847 5846 5845 5844 5843 5843 5842 5842 5841 5841 5841 5840 5841 5841 5842 5843 5843 5844 5845 5846
5872 5871 5870 5868 5867 5866 5865 5863 5861 5859 5857 5856 5854 5853 5851 5850 5849 5847 5846 5845 5844 5843 5842 5842 5841 5840 5839 5838 5837 5836 5836 5835 5834 5833 5833 5833 5833 5833 5834 5835 5836 5837 5838
5865 5862 5861 5861 5860 5859 5857 5856 5854 5852 5850 5848 5848 5847 5845 5844 5843 5842 5841 5840 5839 5839 5838 5837 5836 5835 5833 5832 5831 5830 5829 5828 5827 5826 5826 5825 5825 5825 5825 5826 5827 5828 5829
5857 5855 5854 5853 5852 5850 5849 5847 5847 5845 5844 5842 5841 5840 5839 5838 5837 5837 5836 5835 5834 5833 5832 5831 5830 5829 5828 5826 5825 5824 5823 5821 5820 5819 5818 5817 5817 5816 5816 5818 5818 5819 5821
5847 5845 5844 5845 5844 5842 5841 5839 5839 5837 5836 5836 5835 5834 5833 5832 5831 5831 5830 5830 5829 5828 5827 5826 5825 5824 5822 5820 5818 5817 5816 5815 5812 5811 5810 5809 5809 5808 5809 5810 5810 5811 5812
5839 5836 5835 5837 5836 5835 5833 5831 5831 5830 5829 5828 5828 5827 5826 5825 5825 5824 5824 5823 5823 5822 5821 5820 5819 5818 5816 5814 5812 5810 5809 5808 5806 5804 5802 5801 5800 5800 5801 5801 5802 5804 5805
5831 5828 5830 5828 5828 5827 5826 5825 5824 5823 5822 5821 5820 5820 5819 5819 5818 5818 5818 5817 5816 5816 5815 5814 5813 5811 5810 5808 5806 5803 5801 5799 5798 5797 5795 5793 5792 5792 5792 5793 5795 5796 5797
5824 5823 5823 5820 5820 5820 5819 5817 5816 5815 5815 5814 5813 5812 5812 5811 5811 5811 5810 5810 5809 5809 5808 5807 5806 5804 5803 5802 5800 5798 5795 5792 5790 5789 5788 5786 5784 5784 5784 5786 5787 5788 5790
5818 5816 5816 5815 5814 5812 5811 5809 5808 5807 5806 5805 5804 5804 5803 5803 5803 5803 5802 5802 5801 5801 5800 5800 5798 5797 5796 5794 5793 5791 5788 5786 5783 5781 5780 5778 5777 5777 5777 5778 5780 5781 5782
Wind_Speed
5 6 6 6 7 7 7 8 9 9 9 9 9 9 9 9 9 9 9 9 10 10 9 9 9 9 9 9 9 8 7 7 7 6 6 6 5 5 6 6 6 5 5
3 3 4 4 5 6 6 7 8 8 8 9 9 9 9 9 9 8 8 8 8 9 8 8 8 8 8 8 8 7 7 6 5 5 5 5 4 4 4 4 4 4 3
1 2 2 3 4 5 6 6 7 7 8 8 9 9 9 9 9 9 9 8 8 8 8 7 7 7 7 7 7 7 6 6 5 4 4 4 3 3 3 2 2 2 1
2 2 3 3 4 5 5 6 7 7 8 8 9 9 10 10 9 9 9 9 8 8 7 7 7 7 6 6 6 6 5 5 5 4 4 3 3 3 2 2 2 2 1
4 4 5 5 6 6 7 7 8 8 9 9 9 10 10 10 11 10 10 10 9 9 8 8 7 7 7 6 6 6 5 5 5 4 4 4 4 4 4 3 3 4 3
5 5 7 8 8 8 8 9 10 10 10 11 11 11 11 11 11 12 11 11 11 10 10 9 9 8 8 8 8 7 7 6 6 5 5 5 5 5 5 5 5 5 5
6 7 8 9 9 10 10 11 12 12 13 13 13 14 13 13 13 13 13 13 13 13 12 11 11 10 10 10 10 10 9 9 8 7 7 6 7 6 6 6 7 7 7
7 8 9 10 11 11 12 13 14 15 15 15 16 16 16 15 15 15 15 15 15 15 15 14 13 13 12 12 12 12 12 11 11 10 9 8 9 8 8 8 8 8 8
9 10 11 11 12 13 14 15 16 17 17 17 18 18 18 18 18 18 18 18 18 17 17 16 16 15 15 15 15 14 14 14 14 13 12 12 12 11 10 10 10 10 10
11 12 13 13 14 15 16 17 18 18 19 20 20 21 21 21 21 21 21 21 20 20 19 19 19 18 18 18 17 17 17 17 17 16 15 15 15 14 13 13 12 12 11
14 15 15 15 16 17 18 19 20 21 21 21 22 23 23 23 24 24 24 24 23 23 22 22 21 21 21 21 20 20 21 21 20 19 18 18 17 17 16 16 15 14 14
16 17 17 18 19 20 21 21 22 22 23 23 24 25 25 26 26 26 26 26 26 26 25 25 24 24 24 24 24 23 23 24 23 22 21 21 21 21 20 19 19 18 17
18 19 20 21 22 23 23 23 23 24 24 25 25 26 26 27 27 28 28 28 28 28 28 27 27 27 27 27 26 26 26 26 26 25 24 24 25 24 24 23 23 22 21
21 22 23 24 26 26 26 25 25 25 25 26 26 26 27 28 28 29 29 29 29 29 29 29 28 28 28 27 27 27 27 27 28 28 27 27 27 27 27 26 26 25 25
25 26 27 28 28 28 28 27 27 27 27 27 27 27 28 28 28 29 30 30 29 29 29 28 28 28 28 28 28 28 28 29 30 30 30 30 29 29 30 29 28 28 27
28 29 30 31 31 30 30 29 28 28 28 28 29 28 28 29 29 28 28 28 28 28 27 26 26 27 26 26 27 27 28 29 30 31 32 31 30 30 30 30 29 29 30
32 33 34 33 33 32 31 30 29 29 28 28 29 29 29 28 27 27 26 26 26 25 23 22 23 24 24 25 26 28 28 28 30 33 33 34 32 31 31 31 31 30 31
36 36 36 36 35 33 32 31 30 30 30 29 29 29 28 27 26 25 24 24 23 22 21 20 20 21 22 23 24 26 27 28 28 29 31 31 32 32 32 33 32 32 32
38 38 38 38 37 34 33 33 31 30 29 29 29 28 27 26 25 25 23 22 21 20 20 20 21 21 22 23 24 25 26 27 27 28 29 29 30 31 32 32 33 33 33
39 39 38 38 37 36 35 34 33 31 29 29 29 28 27 26 25 24 23 21 21 20 20 20 21 21 22 24 25 25 26 27 28 28 29 29 29 30 31 30 31 32 32
40 39 38 37 37 37 36 34 34 33 31 30 30 27 26 25 24 23 22 21 21 21 20 20 21 22 23 24 25 25 26 27 28 28 29 29 29 29 29 30 30 30 32
39 38 37 38 39 38 37 36 35 34 33 32 30 28 26 25 24 23 23 22 22 21 21 21 21 22 23 25 26 26 26 27 28 28 29 29 30 30 30 29 29 29 29
37 36 37 39 39 38 37 36 35 34 33 32 29 27 26 25 25 24 24 24 23 23 22 23 23 23 24 26 27 28 28 27 28 28 29 28 29 29 30 30 28 28 28
36 37 39 38 38 37 37 37 34 33 33 33 30 28 27 27 26 26 26 26 26 26 25 25 25 25 26 27 28 29 29 29 29 27 28 29 29 29 29 29 28 27 28
36 37 37 37 36 37 36 36 35 34 34 32 31 29 28 28 28 28 28 29 29 29 29 28 28 28 28 28 29 30 30 31 30 28 26 28 29 29 29 29 29 28 28
34 35 35 35 36 37 38 37 36 36 35 35 33 32 30 30 30 31 31 32 32 32 32 32 31 31 31 30 30 30 31 31 31 30 28 27 28 28 28 28 28 28 28
Wind_Direction
77 70 59 52 49 43 34 24 17 15 15 16 17 17 17 16 16 16 17 18 19 19 20 21 24 25 26 27 29 30 33 37 41 45 51 58 64 69 73 76 79 84 89
66 61 47 35 30 26 20 14 8 4 4 3 3 4 5 5 4 4 5 6 9 11 11 12 13 16 18 19 20 22 23 23 25 30 35 42 48 54 61 68 73 79 85
17 25 22 12 8 7 4 360 355 352 351 350 349 350 351 351 351 351 351 353 356 0 2 1 2 3 6 8 9 9 11 10 9 10 13 16 22 29 35 40 46 57 69
320 328 337 337 340 344 346 344 341 339 338 337 337 338 338 338 338 338 339 340 341 343 346 347 347 347 348 350 351 351 352 354 353 351 349 345 345 344 346 346 334 331 313
307 312 317 320 322 327 330 330 329 328 327 327 328 328 329 330 328 327 326 327 328 329 329 330 331 331 330 329 328 329 331 333 333 334 331 325 318 316 314 310 304 294 290
303 308 313 317 319 322 324 324 325 324 324 323 322 322 322 322 321 319 318 317 317 318 318 316 316 316 315 315 313 310 311 312 313 315 319 316 309 309 304 299 296 290 282
305 309 313 317 320 321 323 323 323 321 321 321 320 319 318 316 316 313 312 310 310 309 309 308 305 303 303 304 304 302 301 300 300 300 301 303 302 302 298 295 289 287 283
307 311 316 318 320 320 319 319 319 318 316 316 315 315 315 313 310 309 307 305 304 303 303 303 301 298 296 295 295 296 296 295 295 293 291 290 292 293 292 290 286 282 282
307 311 314 315 316 316 316 316 315 314 313 312 312 311 310 309 308 306 303 301 300 299 298 297 296 294 292 291 290 289 289 289 290 290 288 286 284 285 285 285 283 280 278
307 310 313 313 313 313 312 312 311 310 309 308 307 306 305 304 303 301 300 298 295 294 293 292 290 290 288 286 284 284 285 285 286 286 286 284 282 280 279 279 277 275 275
308 311 313 315 316 315 313 312 311 309 307 305 303 303 301 300 299 298 297 295 293 291 290 289 286 285 284 283 281 280 280 282 282 282 282 282 280 278 276 275 273 270 269
310 314 316 319 319 317 315 313 311 308 306 304 301 299 298 296 295 294 293 293 291 288 286 285 284 282 280 280 279 276 276 277 279 278 279 279 278 276 274 272 271 269 267
311 314 317 319 320 318 317 315 311 307 304 301 299 297 296 295 294 292 290 289 289 287 285 283 282 281 280 278 277 274 273 273 274 275 277 278 277 275 273 271 269 268 266
310 312 315 318 319 318 317 315 311 307 303 300 297 294 294 294 293 292 291 289 288 287 286 285 283 282 282 280 277 274 271 271 273 275 276 276 275 274 273 272 269 268 266
307 309 312 314 315 315 314 312 310 307 303 300 297 294 293 293 291 290 289 289 289 288 287 285 285 283 282 282 280 277 275 271 271 272 273 273 273 273 273 271 269 267 266
302 304 308 310 311 311 310 309 307 305 302 300 296 294 293 292 290 289 289 288 287 288 288 289 287 287 287 284 282 281 280 277 272 271 273 273 272 273 272 270 269 267 266
298 300 303 304 306 306 306 306 306 304 300 297 295 293 293 292 291 289 288 288 288 290 290 291 292 289 291 291 287 284 284 283 280 275 273 272 271 270 271 271 268 267 265
294 296 298 299 302 302 302 302 302 301 300 297 294 293 292 291 290 288 288 288 288 289 291 292 293 293 294 295 294 292 290 287 286 283 279 277 273 270 269 268 267 266 263
290 292 294 296 298 298 299 299 299 299 298 296 292 291 290 288 287 286 286 285 286 288 291 293 295 295 295 296 297 298 296 293 291 287 284 280 275 272 270 267 265 264 263
286 287 290 292 294 294 295 295 296 297 297 293 290 290 288 286 285 283 281 281 283 286 289 293 296 298 299 299 300 301 300 297 293 290 286 283 280 274 270 268 264 262 263
282 283 285 287 289 289 291 292 293 293 293 292 290 286 284 283 282 281 279 279 281 284 288 291 295 299 301 302 304 305 304 301 297 291 286 283 281 277 272 268 266 263 260
281 279 281 284 286 288 290 292 291 291 291 290 288 284 280 279 279 277 276 277 280 282 286 290 295 299 301 303 305 306 306 303 301 297 290 283 279 276 272 269 265 262 261
278 278 281 283 284 286 288 288 288 289 290 288 286 282 278 277 277 275 275 276 278 281 284 288 292 297 300 303 305 307 308 306 302 299 293 286 280 276 271 266 262 261 261
277 277 277 279 281 285 288 288 289 289 290 289 286 280 277 275 274 274 275 275 277 279 282 285 288 293 297 301 304 306 307 308 305 300 293 287 280 275 271 265 261 261 259
282 281 281 283 284 285 286 287 288 289 289 289 285 280 278 276 275 275 275 276 277 278 280 283 285 289 292 296 300 303 305 307 306 304 296 287 281 274 268 264 260 259 259
286 284 284 285 285 286 285 284 284 286 287 286 284 281 279 277 275 275 276 276 277 278 278 280 282 285 287 291 295 299 301 304 305 305 301 291 282 275 269 263 260 258 258